"startDT [UTC]","vpos","CH4 [ppm]","stdev(CH4) [ppm]","CO2 [ppm]","stdev(CO2) [ppm]","H2O_reported [%]","stdev(H2O_reported)","CavityPressure [torr]","CavityTemp [C]","OutletValve","CH4_dry [ppm]","CO2_dry [ppm]","DasTemp [C]","EtalonTemp [C]","WarmBoxTemp [C]","MPVPosition","T_ECpre [C]","T_EC1 [C]","T_EC2 [C]","p_inlet [hPa]","p_in [hPa]","p_out [hPa]","T_inlet [C]","RH_inlet [%]","dwpt_inlet [C]","T_vent [C]","RH_vent [%]","dwpt_vent [C]","flow_vent [l min-1]","flow_inlet [l min-1]","dwpt_sample [C]","T_room [C]"
2016-08-11 00:00:00,0.0,1.89960,0.00061,385.062,0.200,1.1158,0.0048,139.998,45.000,31839.78875,1.92117,390.425,36.445,45.070,45.000,0.00,0.09,-272.78,-272.84,-12,525,-944,21.4,34.6,5.1,21.6,34.6,5.3,5.73,1.67,1.2,27.3
2016-08-11 00:01:00,0.0,1.89940,0.00063,385.168,0.356,1.1239,0.0116,140.000,45.000,31839.34735,1.92124,390.555,36.474,45.070,45.000,0.00,0.09,-272.80,-272.85,-10,524,-944,21.4,34.8,5.2,21.6,35.0,5.5,5.73,1.98,1.2,27.3
2016-08-11 00:02:00,0.0,1.89939,0.00058,385.232,0.141,1.1129,0.0092,140.000,45.000,31841.76031,1.92092,390.579,36.449,45.070,45.000,0.00,0.09,-272.79,-272.84,-11,524,-944,21.4,34.5,5.1,21.6,34.7,5.3,5.73,1.68,1.2,27.3
2016-08-11 00:03:00,0.0,1.89903,0.00035,385.248,0.156,1.1131,0.0045,139.998,45.000,31841.68433,1.92064,390.592,36.440,45.070,45.000,0.00,0.09,-272.79,-272.84,-11,525,-944,21.4,34.5,5.1,21.6,34.8,5.3,5.73,1.97,1.3,27.3
2016-08-11 00:04:00,0.0,1.89921,0.00041,385.414,0.194,1.1027,0.0103,139.999,45.000,31841.11354,1.92056,390.715,36.438,45.070,45.001,0.00,0.09,-272.79,-272.85,-11,525,-944,21.4,34.1,4.9,21.6,34.5,5.2,5.73,1.68,1.2,27.3
2016-08-11 00:05:00,0.0,1.89906,0.00041,385.428,0.183,1.1109,0.0048,140.000,45.000,31840.13125,1.92058,390.759,36.438,45.070,45.000,0.00,0.09,-272.79,-272.85,-12,525,-944,21.4,34.3,5.0,21.6,34.6,5.3,5.73,1.98,1.3,27.3
2016-08-11 00:06:00,0.0,1.89952,0.00034,385.792,0.097,1.0846,0.0065,140.000,45.000,31837.95224,1.92051,391.007,36.427,45.069,44.999,0.00,0.09,-272.78,-272.84,-10,525,-944,21.4,33.5,4.7,21.6,34.1,5.1,5.73,1.67,1.3,27.3
2016-08-11 00:07:00,0.0,1.89924,0.00051,385.623,0.084,1.0863,0.0083,140.000,44.999,31837.94828,1.92027,390.844,36.394,45.069,44.999,0.00,0.09,-272.79,-272.85,-12,525,-944,21.4,33.6,4.7,21.6,33.8,5.0,5.73,1.98,1.3,27.2
2016-08-11 00:08:00,0.0,1.89948,0.00036,385.029,0.240,1.1074,0.0135,140.000,45.000,31837.46060,1.92089,390.355,36.422,45.069,44.999,0.00,0.09,-272.79,-272.84,-10,525,-944,21.4,34.4,5.0,21.6,34.3,5.2,5.73,1.68,1.2,27.2
2016-08-11 00:09:00,0.0,1.89893,0.00035,385.259,0.450,1.1189,0.0172,139.998,45.000,31838.00075,1.92066,390.618,36.438,45.069,45.000,0.00,0.09,-272.78,-272.84,-12,525,-944,21.4,34.6,5.1,21.6,35.0,5.4,5.73,1.95,1.2,27.2
2016-08-11 00:10:00,0.0,1.89949,0.00056,385.632,0.211,1.0808,0.0080,139.997,45.000,31839.49090,1.92036,390.833,36.446,45.070,45.000,0.00,0.09,-272.79,-272.84,-10,524,-944,21.4,33.5,4.7,21.6,33.9,5.0,5.73,1.74,1.2,27.2
2016-08-11 00:11:00,0.0,1.89951,0.00046,385.847,0.271,1.0853,0.0170,140.000,45.001,31839.82307,1.92053,391.054,36.495,45.070,45.001,0.00,0.09,-272.79,-272.86,-12,524,-944,21.4,33.4,4.6,21.6,33.9,5.0,5.73,1.88,1.2,27.3
2016-08-11 00:12:00,0.0,1.89938,0.00048,385.824,0.081,1.0708,0.0064,140.000,45.001,31843.98808,1.92011,390.971,36.504,45.070,45.001,0.00,0.09,-272.78,-272.84,-10,525,-944,21.4,33.1,4.5,21.6,33.3,4.8,5.73,1.81,1.3,27.2
2016-08-11 00:13:00,0.0,1.89942,0.00063,385.445,0.107,1.0893,0.0075,140.000,45.001,31845.86757,1.92051,390.679,36.519,45.070,45.001,0.00,0.09,-272.77,-272.85,-11,524,-944,21.4,33.7,4.8,21.6,33.8,5.0,5.73,1.83,1.3,27.3
2016-08-11 00:14:00,0.0,1.89909,0.00040,384.981,0.249,1.1100,0.0114,140.000,45.000,31848.82929,1.92056,390.309,36.510,45.070,45.000,0.00,0.31,-271.02,-270.03,-11,525,-944,21.4,34.4,5.1,21.6,34.3,5.2,5.43,1.90,-5.3,27.2
2016-08-11 00:15:00,0.0,1.89937,0.00064,385.274,0.294,1.0993,0.0159,139.997,45.000,31847.49244,1.92065,390.553,36.500,45.069,44.999,0.00,0.09,-272.79,-272.85,-11,525,-944,21.4,34.0,4.9,21.6,34.4,5.2,5.73,1.85,1.3,27.2
2016-08-11 00:16:00,0.0,1.89948,0.00053,385.116,0.263,1.1064,0.0086,139.998,44.999,31845.99270,1.92093,390.421,36.459,45.068,44.998,0.00,0.09,-272.78,-272.84,-11,525,-944,21.4,34.2,5.0,21.6,34.3,5.2,5.73,1.77,1.2,27.2
2016-08-11 00:17:00,0.0,1.89991,0.00063,385.366,0.129,1.0990,0.0121,140.001,44.999,31842.63941,1.92118,390.651,36.434,45.068,44.998,0.00,0.09,-272.79,-272.85,-10,525,-944,21.4,33.9,4.9,21.6,34.3,5.2,5.73,1.88,1.3,27.2
2016-08-11 00:18:00,0.0,1.89982,0.00044,385.421,0.170,1.0925,0.0053,139.997,44.999,31839.65499,1.92101,390.661,36.390,45.068,44.999,0.00,0.09,-272.79,-272.85,-12,525,-944,21.4,33.8,4.8,21.6,34.1,5.1,5.73,1.78,1.3,27.2
2016-08-11 00:19:00,0.0,1.89938,0.00037,385.673,0.047,1.0797,0.0027,140.000,44.999,31839.93208,1.92028,390.861,36.379,45.069,45.000,0.00,0.09,-272.78,-272.84,-10,525,-944,21.4,33.4,4.6,21.6,33.8,4.9,5.73,1.86,1.3,27.2
2016-08-11 00:20:00,0.0,1.89965,0.00040,385.215,0.286,1.0924,0.0096,139.998,45.000,31840.03496,1.92077,390.463,36.390,45.070,45.001,0.00,0.09,-272.79,-272.84,-12,525,-944,21.4,33.9,4.8,21.6,33.9,5.0,5.73,1.81,1.2,27.2
2016-08-11 00:21:00,0.0,1.89979,0.00040,385.500,0.201,1.0950,0.0139,139.999,45.000,31839.05558,1.92100,390.751,36.393,45.071,45.001,0.00,0.09,-272.79,-272.85,-10,525,-944,21.4,33.8,4.8,21.6,34.2,5.1,5.73,1.84,1.3,27.3
2016-08-11 00:22:00,0.0,1.90002,0.00041,385.782,0.183,1.0732,0.0080,140.001,45.000,31840.89852,1.92078,390.946,36.405,45.071,45.001,0.00,0.09,-272.79,-272.84,-11,524,-944,21.4,33.2,4.5,21.6,33.6,4.9,5.73,1.80,1.3,27.3
2016-08-11 00:23:00,0.0,1.90017,0.00042,385.691,0.280,1.0814,0.0119,139.997,45.000,31836.32784,1.92110,390.875,36.382,45.070,45.000,0.00,0.09,-272.78,-272.84,-11,525,-943,21.4,33.4,4.6,21.6,33.6,4.9,5.73,1.87,1.3,27.3
2016-08-11 00:24:00,0.0,1.90016,0.00036,385.738,0.219,1.0698,0.0086,139.999,45.000,31835.55911,1.92086,390.883,36.376,45.070,45.000,0.00,0.09,-272.79,-272.85,-10,525,-944,21.4,33.2,4.5,21.6,33.3,4.7,5.73,1.77,1.3,27.3
2016-08-11 00:25:00,0.0,1.90086,0.00092,384.813,0.374,1.1061,0.0159,140.002,45.000,31838.93214,1.92225,390.132,36.373,45.069,44.999,0.00,0.09,-272.79,-272.86,-12,525,-944,21.4,34.4,5.0,21.6,34.1,5.1,5.73,1.90,1.3,27.2
2016-08-11 00:26:00,0.0,1.90049,0.00080,385.052,0.355,1.1106,0.0175,139.999,45.000,31837.38398,1.92205,390.378,36.375,45.069,44.999,0.00,0.09,-272.78,-272.84,-10,525,-943,21.4,34.4,5.0,21.6,34.7,5.3,5.73,1.76,1.3,27.2
2016-08-11 00:27:00,0.0,1.89969,0.00062,384.977,0.194,1.1123,0.0057,140.001,45.000,31839.74693,1.92131,390.308,36.375,45.069,44.999,0.00,0.09,-272.78,-272.85,-12,525,-944,21.4,34.4,5.0,21.6,34.6,5.3,5.73,1.88,1.3,27.1
2016-08-11 00:28:00,0.0,1.89947,0.00046,385.357,0.112,1.0937,0.0042,139.999,45.000,31841.69403,1.92060,390.610,36.399,45.070,45.000,0.00,0.09,-272.79,-272.85,-10,525,-944,21.4,33.8,4.8,21.6,34.3,5.2,5.73,1.83,1.3,27.1
2016-08-11 00:29:00,0.0,1.89962,0.00053,385.052,0.255,1.1040,0.0085,139.999,45.001,31844.00182,1.92101,390.351,36.447,45.070,45.001,0.00,0.09,-272.79,-272.84,-12,524,-944,21.5,34.1,5.0,21.6,34.2,5.2,5.73,1.78,1.3,27.1
2016-08-11 00:30:00,0.0,1.89988,0.00049,385.422,0.235,1.0888,0.0100,139.996,45.002,31849.02523,1.92097,390.652,36.503,45.071,45.002,0.00,0.09,-272.79,-272.84,-10,524,-944,21.5,33.5,4.8,21.7,34.0,5.1,5.73,1.94,1.3,27.2
2016-08-11 00:31:00,0.0,1.89962,0.00047,384.797,0.263,1.1111,0.0088,140.001,45.002,31855.91164,1.92116,390.125,36.572,45.072,45.002,0.00,0.09,-272.79,-272.85,-12,524,-944,21.6,34.3,5.1,21.7,34.2,5.2,5.73,1.67,1.3,27.3
2016-08-11 00:32:00,0.0,1.89940,0.00048,385.102,0.231,1.1141,0.0139,139.999,45.002,31861.25124,1.92099,390.458,36.621,45.072,45.002,0.00,0.09,-272.79,-272.85,-10,525,-945,21.6,34.2,5.1,21.7,34.6,5.4,5.73,2.00,1.3,27.4
2016-08-11 00:33:00,0.0,1.89959,0.00070,385.261,0.255,1.1086,0.0059,140.000,45.002,31863.19719,1.92107,390.569,36.671,45.072,45.002,0.00,0.09,-272.79,-272.84,-12,525,-944,21.6,34.0,5.1,21.7,34.4,5.3,5.73,1.67,1.3,27.4
2016-08-11 00:34:00,0.0,1.90011,0.00040,385.711,0.093,1.0842,0.0085,140.001,45.001,31864.75375,1.92110,390.926,36.684,45.071,45.001,0.00,0.09,-272.79,-272.85,-10,525,-945,21.6,33.2,4.7,21.7,33.8,5.1,5.73,1.98,1.3,27.4
2016-08-11 00:35:00,0.0,1.89960,0.00050,385.750,0.262,1.0875,0.0100,140.000,45.000,31865.02861,1.92068,390.969,36.688,45.070,45.000,0.00,0.09,-272.78,-272.85,-12,525,-944,21.6,33.3,4.7,21.7,33.7,5.0,5.73,1.68,1.3,27.4
2016-08-11 00:36:00,0.0,1.89979,0.00038,385.672,0.215,1.0803,0.0116,140.001,45.000,31863.03660,1.92069,390.864,36.661,45.069,44.999,0.00,0.09,-272.78,-272.85,-11,525,-944,21.6,33.2,4.7,21.7,33.4,4.9,5.73,1.98,1.3,27.4
2016-08-11 00:37:00,0.0,1.89998,0.00031,385.437,0.164,1.0971,0.0074,140.000,44.999,31860.12701,1.92123,390.708,36.620,45.068,44.998,0.00,0.09,-272.77,-272.84,-11,525,-944,21.6,33.7,4.9,21.7,33.9,5.1,5.73,1.67,1.3,27.4
2016-08-11 00:38:00,0.0,1.89988,0.00032,385.291,0.210,1.1020,0.0062,139.998,44.999,31856.67216,1.92119,390.595,36.614,45.068,44.998,0.00,0.09,-272.79,-272.85,-11,525,-944,21.5,33.9,4.9,21.7,34.1,5.2,5.73,1.99,1.3,27.4
2016-08-11 00:39:00,0.0,1.89971,0.00062,385.433,0.398,1.1070,0.0149,139.998,44.999,31854.40479,1.92118,390.735,36.602,45.068,44.999,0.00,0.09,-272.79,-272.85,-11,525,-945,21.5,34.0,5.0,21.7,34.3,5.3,5.73,1.68,1.3,27.4
2016-08-11 00:40:00,0.0,1.90014,0.00040,386.064,0.074,1.0724,0.0054,139.998,44.999,31852.33352,1.92088,391.217,36.606,45.069,44.999,0.00,0.09,-272.79,-272.85,-12,525,-945,21.5,32.8,4.5,21.7,33.4,4.9,5.73,1.96,1.3,27.4
2016-08-11 00:41:00,0.0,1.90033,0.00039,385.827,0.142,1.0794,0.0079,140.001,44.999,31852.31568,1.92123,391.019,36.620,45.070,45.000,0.00,0.09,-272.79,-272.85,-10,525,-945,21.5,33.2,4.6,21.7,33.3,4.9,5.73,1.69,1.3,27.4
2016-08-11 00:42:00,0.0,1.90024,0.00029,385.907,0.090,1.0800,0.0045,139.999,45.000,31850.97433,1.92116,391.097,36.619,45.070,45.001,0.00,0.09,-272.79,-272.85,-12,525,-946,21.5,33.2,4.6,21.7,33.5,4.9,5.73,1.95,1.3,27.4
2016-08-11 00:43:00,0.0,1.90030,0.00038,385.828,0.238,1.0765,0.0044,139.998,45.000,31851.83103,1.92115,391.008,36.588,45.070,45.000,0.00,0.09,-272.78,-272.84,-10,525,-945,21.5,33.1,4.6,21.7,33.3,4.8,5.73,1.69,1.3,27.4
2016-08-11 00:44:00,0.0,1.90012,0.00046,385.161,0.282,1.1155,0.0124,139.998,45.000,31849.19751,1.92171,390.516,36.561,45.069,44.999,0.00,0.09,-272.79,-272.84,-13,525,-946,21.5,34.3,5.1,21.7,34.2,5.2,5.73,1.97,1.3,27.4
2016-08-11 00:45:00,0.0,1.90049,0.00039,385.631,0.095,1.0886,0.0040,139.997,44.999,31847.46259,1.92160,390.860,36.508,45.069,44.999,0.00,0.09,-272.80,-272.84,-11,525,-949,21.5,33.5,4.8,21.7,33.9,5.1,5.73,1.67,1.3,27.4
2016-08-11 00:46:00,0.0,1.90030,0.00053,385.254,0.201,1.1070,0.0078,140.000,44.999,31844.67318,1.92176,390.570,36.460,45.068,44.999,0.00,0.09,-272.79,-272.84,-10,525,-948,21.5,34.1,5.0,21.7,34.1,5.2,5.73,1.99,1.3,27.4
2016-08-11 00:47:00,0.0,1.89998,0.00040,385.013,0.312,1.1159,0.0137,139.998,44.999,31842.69390,1.92161,390.373,36.445,45.069,44.999,0.00,0.09,-272.78,-272.84,-12,525,-941,21.5,34.4,5.2,21.7,34.4,5.3,5.73,1.67,1.3,27.3
2016-08-11 00:48:00,0.0,1.90001,0.00070,385.702,0.186,1.0950,0.0196,139.998,45.000,31843.37782,1.92120,390.964,36.438,45.069,45.000,0.00,0.09,-272.79,-272.85,-11,524,-943,21.5,33.7,4.8,21.7,34.3,5.2,5.73,1.98,1.3,27.3
2016-08-11 00:49:00,0.0,1.90070,0.00052,385.727,0.153,1.0881,0.0077,139.998,45.000,31843.66672,1.92181,390.951,36.464,45.070,45.001,0.00,0.09,-272.79,-272.85,-12,525,-944,21.5,33.5,4.7,21.7,33.8,5.0,5.73,1.69,1.3,27.3
2016-08-11 00:50:00,0.0,1.90034,0.00043,385.393,0.303,1.0987,0.0147,139.998,45.000,31845.02441,1.92162,390.677,36.492,45.071,45.001,0.00,0.09,-272.78,-272.85,-10,525,-944,21.4,33.9,4.9,21.7,33.8,5.0,5.73,1.95,1.3,27.3
2016-08-11 00:51:00,0.0,1.90037,0.00045,385.593,0.213,1.0989,0.0099,139.999,45.001,31843.81647,1.92167,390.865,36.496,45.071,45.001,0.00,0.09,-272.78,-272.84,-12,525,-944,21.5,33.8,4.9,21.7,34.2,5.2,5.73,1.71,1.3,27.3
2016-08-11 00:52:00,0.0,1.90054,0.00042,385.814,0.133,1.0829,0.0050,139.999,45.001,31843.09314,1.92150,391.019,36.498,45.071,45.001,0.00,0.09,-272.79,-272.85,-10,525,-944,21.5,33.3,4.7,21.7,33.7,5.0,5.73,1.95,1.3,27.3
2016-08-11 00:53:00,0.0,1.90047,0.00061,385.735,0.204,1.0833,0.0110,139.996,45.000,31841.85887,1.92148,390.941,36.497,45.070,45.000,0.00,0.09,-272.78,-272.85,-12,525,-944,21.5,33.4,4.7,21.7,33.6,4.9,5.73,1.70,1.3,27.3
2016-08-11 00:54:00,0.0,1.90044,0.00039,385.484,0.231,1.0943,0.0116,139.999,45.000,31842.93008,1.92157,390.745,36.461,45.069,44.999,0.00,0.09,-272.78,-272.85,-11,525,-944,21.5,33.8,4.9,21.7,33.9,5.1,5.73,1.96,1.4,27.3
2016-08-11 00:55:00,0.0,1.90045,0.00035,385.891,0.176,1.0842,0.0142,140.000,45.000,31840.71616,1.92151,391.096,36.452,45.069,44.999,0.00,0.09,-272.79,-272.85,-11,525,-944,21.4,33.3,4.6,21.6,33.8,5.0,5.73,1.69,1.4,27.3
2016-08-11 00:56:00,0.0,1.89994,0.00052,386.005,0.178,1.0737,0.0083,140.001,45.000,31842.02330,1.92073,391.163,36.475,45.069,44.999,0.00,0.09,-272.79,-272.85,-11,525,-944,21.4,33.1,4.5,21.7,33.4,4.8,5.73,1.95,1.3,27.3
2016-08-11 00:57:00,0.0,1.89983,0.00055,385.672,0.264,1.0850,0.0181,139.997,45.000,31842.03936,1.92085,390.885,36.507,45.069,45.000,0.00,0.09,-272.78,-272.84,-10,525,-944,21.5,33.5,4.7,21.7,33.4,4.9,5.73,1.73,1.3,27.3
2016-08-11 00:58:00,0.0,1.89991,0.00053,385.712,0.208,1.0873,0.0072,140.000,45.000,31844.78497,1.92093,390.945,36.530,45.070,45.000,0.00,0.09,-272.79,-272.85,-12,525,-944,21.4,33.6,4.7,21.6,33.8,5.0,5.73,1.90,1.4,27.3
2016-08-11 00:59:00,0.0,1.89981,0.00046,385.363,0.209,1.1062,0.0099,140.001,45.001,31846.92506,1.92130,390.677,36.562,45.070,45.001,0.00,0.09,-272.80,-272.84,-10,525,-944,21.4,34.1,5.0,21.6,34.2,5.2,5.73,1.78,1.3,27.4
2016-08-11 01:00:00,0.0,1.90004,0.00033,385.274,0.142,1.1096,0.0049,139.999,45.001,31847.18737,1.92148,390.598,36.563,45.070,45.001,0.00,0.09,-272.78,-272.84,-12,525,-944,21.4,34.2,5.0,21.6,34.3,5.2,5.73,1.86,1.4,27.3
2016-08-11 01:01:00,0.0,1.89946,0.00054,385.632,0.198,1.0956,0.0092,139.997,45.000,31846.34374,1.92070,390.897,36.564,45.070,45.000,0.00,0.09,-272.79,-272.84,-10,525,-944,21.5,33.8,4.9,21.6,34.2,5.2,5.73,1.78,1.4,27.3
2016-08-11 01:02:00,0.0,1.89934,0.00039,385.509,0.129,1.1034,0.0074,139.999,45.000,31846.62029,1.92072,390.808,36.570,45.070,45.000,0.00,0.09,-272.79,-272.85,-12,525,-944,21.5,34.0,5.0,21.7,34.1,5.2,5.73,1.89,1.4,27.3
2016-08-11 01:03:00,0.0,1.89892,0.00064,385.485,0.239,1.1074,0.0098,140.001,45.000,31845.33953,1.92042,390.802,36.564,45.069,44.999,0.00,0.09,-272.78,-272.84,-11,525,-944,21.5,34.1,5.0,21.7,34.2,5.2,5.73,1.75,1.4,27.3
2016-08-11 01:04:00,0.0,1.89845,0.00051,385.604,0.196,1.1020,0.0103,139.998,44.999,31843.09901,1.91976,390.910,36.528,45.068,44.998,0.00,0.09,-272.78,-272.84,-11,525,-944,21.5,34.1,5.0,21.6,34.3,5.2,5.73,1.91,1.4,27.3
2016-08-11 01:05:00,0.0,1.89812,0.00064,385.516,0.199,1.1176,0.0110,139.998,44.999,31840.31466,1.91979,390.881,36.505,45.068,44.999,0.00,0.09,-272.79,-272.85,-11,525,-944,21.5,34.5,5.1,21.6,34.6,5.3,5.73,1.75,1.4,27.3
2016-08-11 01:06:00,0.0,1.89891,0.00042,385.777,0.117,1.0941,0.0102,139.999,45.000,31840.67119,1.92009,391.041,36.507,45.069,44.999,0.00,0.09,-272.79,-272.85,-10,525,-944,21.4,33.8,4.8,21.6,34.2,5.2,5.73,1.90,1.4,27.3
2016-08-11 01:07:00,0.0,1.89835,0.00040,385.643,0.161,1.1074,0.0088,140.001,45.000,31841.80984,1.91979,390.964,36.515,45.070,45.000,0.00,0.09,-272.78,-272.84,-12,525,-944,21.4,34.2,5.0,21.6,34.4,5.2,5.73,1.75,1.4,27.3
2016-08-11 01:08:00,0.0,1.89817,0.00060,385.433,0.350,1.1125,0.0193,139.998,45.000,31840.12399,1.91972,390.774,36.508,45.070,45.000,0.00,0.09,-272.78,-272.85,-10,525,-944,21.5,34.5,5.1,21.6,34.4,5.3,5.73,1.92,1.4,27.3
2016-08-11 01:09:00,0.0,1.89777,0.00062,385.517,0.239,1.1212,0.0172,139.998,45.000,31838.95238,1.91947,390.916,36.486,45.070,45.000,0.00,0.09,-272.79,-272.85,-12,525,-944,21.4,34.6,5.1,21.6,34.8,5.4,5.73,1.74,1.4,27.3
2016-08-11 01:10:00,0.0,1.89804,0.00040,385.574,0.199,1.1156,0.0106,139.998,45.000,31838.94603,1.91965,390.942,36.476,45.070,45.000,0.00,0.09,-272.78,-272.84,-10,525,-944,21.4,34.5,5.1,21.6,34.8,5.4,5.73,1.91,1.4,27.3
2016-08-11 01:11:00,0.0,1.89764,0.00067,385.584,0.242,1.1221,0.0136,139.998,45.000,31840.65321,1.91936,390.976,36.475,45.070,45.001,0.00,0.09,-272.78,-272.84,-12,525,-944,21.5,34.7,5.2,21.6,34.8,5.4,5.73,1.76,1.4,27.3
2016-08-11 01:12:00,0.0,1.89747,0.00051,385.122,0.239,1.1430,0.0133,139.997,45.000,31839.50457,1.91962,390.615,36.477,45.071,45.001,0.00,0.09,-272.80,-272.85,-11,525,-944,21.4,35.4,5.5,21.6,35.3,5.6,5.73,1.89,1.4,27.3
2016-08-11 01:13:00,0.0,1.89754,0.00046,385.648,0.205,1.1226,0.0100,140.002,45.001,31841.73688,1.91926,391.047,36.483,45.071,45.001,0.00,0.09,-272.79,-272.84,-11,525,-944,21.4,34.6,5.2,21.6,35.2,5.6,5.73,1.76,1.4,27.3
2016-08-11 01:14:00,0.0,1.89747,0.00048,385.568,0.127,1.1232,0.0076,139.998,45.000,31841.48387,1.91923,390.968,36.464,45.071,45.001,0.00,0.09,-272.78,-272.84,-12,525,-944,21.4,34.7,5.2,21.6,34.9,5.5,5.73,1.89,1.4,27.3
2016-08-11 01:15:00,0.0,1.89774,0.00047,385.216,0.194,1.1350,0.0138,139.997,45.000,31838.87117,1.91973,390.684,36.446,45.070,45.000,0.00,0.09,-272.79,-272.85,-10,525,-944,21.4,35.2,5.4,21.6,35.2,5.6,5.73,1.74,1.4,27.3
2016-08-11 01:16:00,0.0,1.89729,0.00040,385.179,0.345,1.1556,0.0122,140.000,45.000,31837.50110,1.91968,390.720,36.429,45.070,45.000,0.00,0.09,-272.79,-272.85,-12,525,-944,21.4,35.7,5.6,21.6,35.9,5.9,5.73,1.92,1.4,27.3
2016-08-11 01:17:00,0.0,1.89785,0.00049,385.752,0.141,1.1158,0.0079,139.996,45.000,31836.08584,1.91946,391.125,36.427,45.070,45.000,0.00,0.09,-272.78,-272.84,-10,525,-944,21.4,34.5,5.1,21.6,35.0,5.5,5.73,1.74,1.4,27.3
2016-08-11 01:18:00,0.0,1.89739,0.00042,385.481,0.085,1.1305,0.0041,140.003,45.000,31839.64966,1.91928,390.919,36.432,45.070,45.000,0.00,0.09,-272.79,-272.85,-12,525,-944,21.4,35.0,5.3,21.6,35.1,5.5,5.73,1.91,1.4,27.3
2016-08-11 01:19:00,0.0,1.89771,0.00045,385.717,0.277,1.1178,0.0144,139.998,45.000,31837.79900,1.91937,391.086,36.433,45.070,45.001,0.00,0.09,-272.79,-272.85,-10,525,-944,21.4,34.5,5.1,21.6,34.9,5.4,5.73,1.75,1.4,27.3
2016-08-11 01:20:00,0.0,1.89816,0.00051,386.127,0.102,1.0974,0.0155,140.002,45.000,31838.53488,1.91938,391.410,36.439,45.070,45.001,0.00,0.09,-272.78,-272.85,-12,525,-944,21.4,33.8,4.8,21.6,34.4,5.2,5.73,1.91,1.4,27.3
2016-08-11 01:21:00,0.0,1.89801,0.00038,386.016,0.093,1.0969,0.0048,139.997,45.000,31836.68036,1.91924,391.296,36.436,45.070,45.000,0.00,0.09,-272.78,-272.85,-11,525,-944,21.4,33.9,4.9,21.6,34.1,5.1,5.73,1.72,1.4,27.3
2016-08-11 01:22:00,0.0,1.89800,0.00042,385.529,0.195,1.1250,0.0105,139.999,45.000,31833.82206,1.91979,390.942,36.405,45.069,44.999,0.00,0.09,-272.79,-272.86,-11,525,-943,21.4,34.8,5.2,21.6,34.8,5.4,5.73,1.95,1.4,27.3
2016-08-11 01:23:00,0.0,1.89813,0.00038,385.728,0.251,1.1241,0.0104,139.999,44.999,31830.79949,1.91991,391.129,36.386,45.069,44.999,0.00,0.09,-272.79,-272.84,-12,525,-944,21.4,34.7,5.2,21.6,35.1,5.5,5.73,1.70,1.4,27.2
2016-08-11 01:24:00,0.0,1.89841,0.00038,386.119,0.140,1.1040,0.0080,140.000,45.000,31830.23093,1.91978,391.433,36.406,45.069,44.999,0.00,0.09,-272.79,-272.84,-10,525,-944,21.4,34.1,4.9,21.6,34.6,5.3,5.73,1.94,1.4,27.2
2016-08-11 01:25:00,0.0,1.89828,0.00023,385.997,0.140,1.1032,0.0062,139.998,45.000,31833.13099,1.91962,391.309,36.433,45.069,45.000,0.00,0.09,-272.79,-272.85,-12,525,-944,21.4,34.1,4.9,21.6,34.3,5.2,5.73,1.72,1.4,27.3
2016-08-11 01:26:00,0.0,1.89828,0.00052,385.924,0.259,1.1179,0.0116,139.999,45.000,31833.25826,1.91994,391.297,36.446,45.070,45.000,0.00,0.09,-272.79,-272.85,-10,525,-944,21.4,34.5,5.1,21.6,34.8,5.4,5.73,1.91,1.4,27.3
2016-08-11 01:27:00,0.0,1.89811,0.00039,386.076,0.174,1.1095,0.0090,139.998,45.001,31836.47856,1.91960,391.414,36.466,45.070,45.001,0.00,0.09,-272.78,-272.84,-12,524,-944,21.4,34.2,5.0,21.6,34.6,5.3,5.73,1.75,1.4,27.3
2016-08-11 01:28:00,0.0,1.89804,0.00047,385.982,0.148,1.1119,0.0102,140.000,45.000,31838.70366,1.91956,391.333,36.476,45.070,45.001,0.00,0.09,-272.79,-272.84,-10,525,-944,21.4,34.4,5.1,21.6,34.6,5.3,5.73,1.90,1.4,27.3
2016-08-11 01:29:00,0.0,1.89805,0.00047,385.905,0.162,1.1156,0.0092,140.000,45.000,31840.15581,1.91967,391.278,36.457,45.070,45.000,0.00,0.09,-272.79,-272.84,-11,525,-943,21.4,34.5,5.1,21.6,34.7,5.3,5.73,1.73,1.4,27.3
2016-08-11 01:30:00,0.0,1.89763,0.00038,385.734,0.186,1.1285,0.0064,140.000,45.000,31837.60322,1.91949,391.162,36.439,45.069,44.999,0.00,0.09,-272.78,-272.84,-12,525,-944,21.4,34.9,5.3,21.6,35.1,5.5,5.73,1.94,1.4,27.3
2016-08-11 01:31:00,0.0,1.89797,0.00036,385.827,0.194,1.1219,0.0083,140.000,45.000,31835.97852,1.91969,391.228,36.438,45.069,44.999,0.00,0.09,-272.78,-272.84,-10,525,-944,21.4,34.7,5.2,21.6,35.0,5.5,5.73,1.70,1.4,27.3
2016-08-11 01:32:00,0.0,1.89752,0.00037,385.421,0.209,1.1482,0.0125,140.000,44.999,31835.94556,1.91977,390.943,36.438,45.068,44.999,0.00,0.09,-272.79,-272.86,-12,525,-944,21.4,35.6,5.6,21.6,35.5,5.7,5.73,1.96,1.4,27.3
2016-08-11 01:33:00,0.0,1.89779,0.00044,385.672,0.088,1.1389,0.0110,139.999,44.999,31834.30205,1.91986,391.158,36.438,45.069,44.999,0.00,0.09,-272.78,-272.85,-10,524,-944,21.4,35.2,5.4,21.6,35.7,5.7,5.73,1.69,1.4,27.3
2016-08-11 01:34:00,0.0,1.89815,0.00040,385.744,0.109,1.1364,0.0071,140.002,45.000,31835.44143,1.92016,391.211,36.439,45.069,45.000,0.00,0.09,-272.78,-272.84,-12,525,-944,21.4,35.1,5.4,21.6,35.5,5.7,5.73,1.96,1.4,27.3
2016-08-11 01:35:00,0.0,1.89813,0.00046,385.587,0.160,1.1428,0.0103,139.998,45.000,31833.22556,1.92030,391.091,36.438,45.070,45.000,0.00,0.09,-272.79,-272.84,-10,525,-944,21.4,35.4,5.5,21.6,35.5,5.7,5.73,1.69,1.4,27.3
2016-08-11 01:36:00,0.0,1.89752,0.00045,385.397,0.292,1.1594,0.0130,139.999,45.000,31833.63888,1.91997,390.967,36.441,45.070,45.001,0.00,0.09,-272.80,-272.85,-11,525,-944,21.4,35.9,5.7,21.6,36.1,5.9,5.73,1.98,1.4,27.3
2016-08-11 01:37:00,0.0,1.89798,0.00039,385.774,0.258,1.1429,0.0096,140.002,45.000,31831.90123,1.92014,391.290,36.434,45.070,45.000,0.00,0.09,-272.79,-272.84,-11,525,-944,21.4,35.4,5.5,21.6,35.8,5.8,5.73,1.66,1.4,27.3
2016-08-11 01:38:00,0.0,1.89760,0.00047,385.290,0.160,1.1675,0.0069,140.000,45.000,31832.26578,1.92025,390.907,36.387,45.070,45.000,0.00,0.09,-272.79,-272.84,-10,524,-944,21.4,36.2,5.8,21.6,36.4,6.0,5.73,2.00,1.4,27.3
2016-08-11 01:39:00,0.0,1.89750,0.00037,385.492,0.244,1.1642,0.0070,139.999,45.000,31831.99961,1.92007,391.093,36.366,45.069,44.999,0.00,0.09,-272.79,-272.85,-12,525,-944,21.4,36.0,5.7,21.6,36.4,6.0,5.73,1.66,1.4,27.3
2016-08-11 01:40:00,0.0,1.89829,0.00047,386.096,0.137,1.1254,0.0100,140.000,45.000,31833.42967,1.92009,391.509,36.373,45.070,45.000,0.00,0.09,-272.79,-272.85,-10,524,-944,21.4,34.7,5.2,21.6,35.5,5.7,5.73,2.00,1.4,27.3
2016-08-11 01:41:00,0.0,1.89811,0.00042,385.692,0.339,1.1350,0.0168,140.002,45.000,31832.37611,1.92012,391.162,36.374,45.070,45.000,0.00,0.09,-272.78,-272.84,-12,525,-944,21.4,35.2,5.4,21.6,35.2,5.5,5.73,1.66,1.4,27.3
2016-08-11 01:42:00,0.0,1.89804,0.00058,385.950,0.243,1.1376,0.0198,139.998,45.000,31831.31809,1.92006,391.430,36.375,45.070,45.001,0.00,0.09,-272.79,-272.85,-11,525,-943,21.4,35.2,5.4,21.6,35.7,5.8,5.73,2.00,1.4,27.3
2016-08-11 01:43:00,0.0,1.89820,0.00042,385.978,0.190,1.1318,0.0119,139.999,45.000,31832.73118,1.92014,391.425,36.373,45.070,45.000,0.00,0.09,-272.79,-272.85,-11,524,-944,21.4,34.9,5.3,21.6,35.4,5.6,5.73,1.65,1.4,27.3
2016-08-11 01:44:00,0.0,1.89813,0.00028,386.195,0.124,1.1203,0.0091,139.997,45.000,31829.60319,1.91985,391.586,36.366,45.070,45.000,0.00,0.09,-272.79,-272.84,-11,525,-943,21.4,34.5,5.1,21.6,35.0,5.5,5.73,2.00,1.4,27.2
2016-08-11 01:45:00,0.0,1.89791,0.00044,386.013,0.154,1.1230,0.0090,139.997,45.000,31829.56029,1.91967,391.422,36.337,45.069,44.999,0.00,0.09,-272.78,-272.84,-10,525,-943,21.4,34.7,5.2,21.6,34.9,5.4,5.73,1.66,1.4,27.2
2016-08-11 01:46:00,0.0,1.89773,0.00033,386.114,0.083,1.1217,0.0069,139.999,45.000,31831.04527,1.91943,391.515,36.348,45.069,45.000,0.00,0.09,-272.79,-272.85,-12,524,-944,21.4,34.6,5.2,21.6,35.0,5.5,5.73,1.99,1.4,27.2